24.04.2024;06:00;32
24.04.2024;05:00;23
24.04.2024;04:00;21
24.04.2024;03:00;19
24.04.2024;02:00;20
24.04.2024;01:00;20
24.04.2024;00:00;24
23.04.2024;23:00;22
23.04.2024;22:00;15
23.04.2024;21:00;15
23.04.2024;20:00;14
23.04.2024;19:00;14
23.04.2024;18:00;11
23.04.2024;17:00;7
23.04.2024;16:00;8
23.04.2024;15:00;6
23.04.2024;14:00;6
23.04.2024;13:00;6
23.04.2024;12:00;8
23.04.2024;11:00;9
23.04.2024;10:00;10
23.04.2024;09:00;19
23.04.2024;08:00;46
23.04.2024;07:00;42
23.04.2024;06:00;36
23.04.2024;05:00;23
23.04.2024;04:00;29
23.04.2024;03:00;19
23.04.2024;02:00;30
23.04.2024;01:00;20
23.04.2024;00:00;8
22.04.2024;23:00;5
22.04.2024;22:00;7
22.04.2024;21:00;8
22.04.2024;20:00;8
22.04.2024;19:00;6
22.04.2024;18:00;6
22.04.2024;17:00;7
22.04.2024;16:00;8
22.04.2024;15:00;8
22.04.2024;14:00;10
22.04.2024;13:00;8
22.04.2024;12:00;6
22.04.2024;11:00;8
22.04.2024;10:00;8
22.04.2024;09:00;34
22.04.2024;08:00;32
22.04.2024;07:00;35
